Time,TemperatureF,DewpointF,PressureIn,WindDirection,WindDirectionDegrees,WindSpeedMPH,WindSpeedGustMPH,Humidity,HourlyPrecipIn,Conditions,Clouds,dailyrainin,SoftwareType,DateUTC
2013-05-25 00:02:00,56.0,46.0,30.09,SE,132,5.0,12.0,69,0.00,,,0.19,,2013-05-25 05:02:00,
2013-05-25 00:12:00,56.0,46.0,30.09,SE,132,5.0,12.0,69,0.00,,,0.19,,2013-05-25 05:12:00,
2013-05-25 00:22:00,56.0,46.0,30.09,SE,141,7.0,14.0,68,0.00,,,0.19,,2013-05-25 05:22:00,
2013-05-25 00:32:00,56.0,46.0,30.09,SSE,152,6.0,12.0,69,0.00,,,0.19,,2013-05-25 05:32:00,
2013-05-25 00:42:00,56.0,46.0,30.09,SSE,152,6.0,12.0,69,0.00,,,0.19,,2013-05-25 05:42:00,
2013-05-25 00:52:00,55.0,45.0,30.09,SE,138,5.0,13.0,70,0.00,,,0.19,,2013-05-25 05:52:00,
2013-05-25 01:02:00,56.0,46.0,30.09,ESE,121,9.0,23.0,70,0.00,,,0.19,,2013-05-25 06:02:00,
2013-05-25 01:12:00,56.0,46.0,30.09,ESE,121,9.0,23.0,70,0.00,,,0.19,,2013-05-25 06:12:00,
2013-05-25 01:21:00,55.0,46.0,30.08,SSE,164,10.0,14.0,71,0.00,,,0.19,,2013-05-25 06:21:00,
2013-05-25 01:32:00,55.0,46.0,30.07,ESE,123,8.0,16.0,71,0.00,,,0.19,,2013-05-25 06:32:00,
2013-05-25 01:42:00,55.0,46.0,30.07,ESE,123,8.0,16.0,71,0.00,,,0.19,,2013-05-25 06:42:00,
2013-05-25 01:52:00,55.0,46.0,30.07,SE,139,6.0,12.0,71,0.00,,,0.19,,2013-05-25 06:52:00,
2013-05-25 02:01:00,55.0,46.0,30.06,ESE,114,3.0,9.0,72,0.00,,,0.19,,2013-05-25 07:01:00,
2013-05-25 02:11:00,55.0,46.0,30.06,ESE,114,3.0,9.0,72,0.00,,,0.19,,2013-05-25 07:11:00,
2013-05-25 02:21:00,54.0,46.0,30.05,ESE,117,5.0,12.0,73,0.00,,,0.19,,2013-05-25 07:21:00,
2013-05-25 02:32:00,55.0,46.0,30.05,SE,125,7.0,15.0,72,0.00,,,0.19,,2013-05-25 07:32:00,
2013-05-25 02:42:00,55.0,46.0,30.05,SE,125,7.0,15.0,72,0.00,,,0.19,,2013-05-25 07:42:00,
2013-05-25 02:52:00,54.0,45.0,30.05,SE,142,9.0,15.0,71,0.00,,,0.19,,2013-05-25 07:52:00,
2013-05-25 03:02:00,54.0,45.0,30.05,SSE,159,8.0,15.0,72,0.00,,,0.19,,2013-05-25 08:02:00,
2013-05-25 03:11:00,54.0,45.0,30.05,SSE,159,8.0,15.0,72,0.00,,,0.19,,2013-05-25 08:11:00,
2013-05-25 03:22:00,54.0,45.0,30.04,SSE,161,10.0,19.0,71,0.00,,,0.19,,2013-05-25 08:22:00,
2013-05-25 03:32:00,54.0,45.0,30.04,SE,129,8.0,17.0,71,0.00,,,0.19,,2013-05-25 08:32:00,
2013-05-25 03:42:00,54.0,45.0,30.04,SE,129,8.0,17.0,71,0.00,,,0.19,,2013-05-25 08:42:00,
2013-05-25 03:51:00,54.0,45.0,30.05,ESE,118,9.0,15.0,72,0.00,,,0.19,,2013-05-25 08:51:00,
2013-05-25 04:02:00,53.0,44.0,30.05,SE,134,7.0,13.0,72,0.00,,,0.19,,2013-05-25 09:02:00,
2013-05-25 04:11:00,53.0,44.0,30.05,SE,134,7.0,13.0,72,0.00,,,0.19,,2013-05-25 09:11:00,
2013-05-25 04:21:00,53.0,44.0,30.05,SSE,156,6.0,16.0,72,0.00,,,0.19,,2013-05-25 09:21:00,
2013-05-25 04:33:00,53.0,45.0,30.06,SSE,157,6.0,14.0,73,0.00,,,0.19,,2013-05-25 09:33:00,
2013-05-25 04:42:00,53.0,45.0,30.06,SSE,157,6.0,14.0,73,0.00,,,0.19,,2013-05-25 09:42:00,
2013-05-25 04:52:00,53.0,45.0,30.06,ESE,116,6.0,12.0,73,0.00,,,0.19,,2013-05-25 09:52:00,
2013-05-25 05:03:00,52.0,44.0,30.05,SE,138,5.0,12.0,73,0.00,,,0.19,,2013-05-25 10:03:00,
2013-05-25 05:12:00,52.0,44.0,30.05,SE,138,5.0,12.0,73,0.00,,,0.19,,2013-05-25 10:12:00,
2013-05-25 05:22:00,52.0,44.0,30.06,SE,142,5.0,13.0,73,0.00,,,0.19,,2013-05-25 10:22:00,
2013-05-25 05:33:00,52.0,44.0,30.07,ESE,123,5.0,11.0,73,0.00,,,0.19,,2013-05-25 10:33:00,
2013-05-25 05:42:00,52.0,44.0,30.07,ESE,123,5.0,11.0,73,0.00,,,0.19,,2013-05-25 10:42:00,
2013-05-25 05:52:00,52.0,44.0,30.06,SE,132,5.0,9.0,74,0.00,,,0.19,,2013-05-25 10:52:00,
2013-05-25 06:02:00,51.0,43.0,30.06,ESE,123,5.0,10.0,74,0.00,,,0.19,,2013-05-25 11:02:00,
2013-05-25 06:12:00,51.0,43.0,30.06,ESE,123,5.0,10.0,74,0.00,,,0.19,,2013-05-25 11:12:00,
2013-05-25 06:21:00,51.0,43.0,30.06,SSE,160,5.0,9.0,74,0.00,,,0.19,,2013-05-25 11:21:00,
2013-05-25 06:32:00,51.0,43.0,30.06,SSE,158,4.0,9.0,74,0.00,,,0.19,,2013-05-25 11:32:00,
2013-05-25 06:42:00,51.0,43.0,30.06,SSE,158,4.0,9.0,74,0.00,,,0.19,,2013-05-25 11:42:00,
2013-05-25 06:52:00,52.0,44.0,30.06,SE,146,6.0,10.0,74,0.00,,,0.19,,2013-05-25 11:52:00,
2013-05-25 07:01:00,52.0,44.0,30.06,SE,142,5.0,11.0,74,0.00,,,0.19,,2013-05-25 12:01:00,
2013-05-25 07:12:00,52.0,44.0,30.06,SE,142,5.0,11.0,74,0.00,,,0.19,,2013-05-25 12:12:00,
2013-05-25 07:22:00,52.0,44.0,30.06,East,90,4.0,9.0,73,0.00,,,0.19,,2013-05-25 12:22:00,
2013-05-25 07:32:00,53.0,44.0,30.07,ESE,115,6.0,12.0,72,0.00,,,0.19,,2013-05-25 12:32:00,
2013-05-25 07:42:00,53.0,44.0,30.07,ESE,115,6.0,12.0,72,0.00,,,0.19,,2013-05-25 12:42:00,
2013-05-25 07:52:00,53.0,44.0,30.08,SE,134,4.0,9.0,72,0.00,,,0.19,,2013-05-25 12:52:00,
2013-05-25 08:02:00,54.0,45.0,30.08,SE,129,5.0,10.0,71,0.00,,,0.19,,2013-05-25 13:02:00,
2013-05-25 08:11:00,54.0,45.0,30.08,SE,129,5.0,10.0,71,0.00,,,0.19,,2013-05-25 13:11:00,
2013-05-25 08:21:00,54.0,44.0,30.08,SSE,161,9.0,15.0,69,0.00,,,0.19,,2013-05-25 13:21:00,
2013-05-25 08:32:00,55.0,45.0,30.09,ESE,121,7.0,18.0,68,0.00,,,0.19,,2013-05-25 13:32:00,
2013-05-25 08:42:00,55.0,45.0,30.09,ESE,121,7.0,18.0,68,0.00,,,0.19,,2013-05-25 13:42:00,
2013-05-25 08:52:00,54.0,43.0,30.09,SE,136,10.0,20.0,67,0.00,,,0.19,,2013-05-25 13:52:00,
2013-05-25 09:02:00,55.0,44.0,30.09,ESE,121,8.0,17.0,67,0.00,,,0.19,,2013-05-25 14:02:00,
2013-05-25 09:11:00,55.0,44.0,30.09,ESE,121,8.0,17.0,67,0.00,,,0.19,,2013-05-25 14:11:00,
2013-05-25 09:22:00,55.0,44.0,30.08,SE,130,9.0,17.0,66,0.00,,,0.19,,2013-05-25 14:22:00,
2013-05-25 09:32:00,56.0,44.0,30.08,ESE,117,11.0,18.0,65,0.00,,,0.19,,2013-05-25 14:32:00,
2013-05-25 09:42:00,56.0,44.0,30.08,ESE,117,11.0,18.0,65,0.00,,,0.19,,2013-05-25 14:42:00,
2013-05-25 09:52:00,56.0,44.0,30.09,ESE,119,11.0,18.0,64,0.00,,,0.19,,2013-05-25 14:52:00,
2013-05-25 10:01:00,57.0,45.0,30.09,SSE,153,10.0,19.0,65,0.00,,,0.19,,2013-05-25 15:01:00,
2013-05-25 10:11:00,57.0,45.0,30.09,SSE,153,10.0,19.0,65,0.00,,,0.19,,2013-05-25 15:11:00,
2013-05-25 10:22:00,57.0,45.0,30.09,ESE,119,12.0,23.0,63,0.00,,,0.19,,2013-05-25 15:22:00,
2013-05-25 10:33:00,57.0,44.0,30.09,SE,126,12.0,25.0,62,0.00,,,0.19,,2013-05-25 15:33:00,
2013-05-25 10:43:00,57.0,44.0,30.09,SE,126,12.0,25.0,62,0.00,,,0.19,,2013-05-25 15:43:00,
2013-05-25 10:53:00,58.0,45.0,30.09,SE,134,10.0,25.0,62,0.00,,,0.19,,2013-05-25 15:53:00,
2013-05-25 11:03:00,58.0,45.0,30.09,East,101,10.0,21.0,62,0.00,,,0.19,,2013-05-25 16:03:00,
2013-05-25 11:12:00,58.0,45.0,30.09,East,101,10.0,21.0,62,0.00,,,0.19,,2013-05-25 16:12:00,
2013-05-25 11:23:00,58.0,45.0,30.09,SE,136,11.0,24.0,63,0.00,,,0.19,,2013-05-25 16:23:00,
2013-05-25 11:32:00,58.0,45.0,30.09,SSE,147,12.0,20.0,63,0.00,,,0.19,,2013-05-25 16:32:00,
2013-05-25 11:42:00,58.0,45.0,30.09,SSE,147,12.0,20.0,63,0.00,,,0.19,,2013-05-25 16:42:00,
2013-05-25 11:52:00,58.0,45.0,30.09,SE,141,11.0,22.0,63,0.00,,,0.19,,2013-05-25 16:52:00,
2013-05-25 12:03:00,59.0,47.0,30.09,East,101,10.0,21.0,64,0.00,,,0.19,,2013-05-25 17:03:00,
2013-05-25 12:11:00,59.0,47.0,30.09,East,101,10.0,21.0,64,0.00,,,0.19,,2013-05-25 17:11:00,
2013-05-25 12:22:00,59.0,47.0,30.09,ESE,120,9.0,21.0,64,0.00,,,0.19,,2013-05-25 17:22:00,
2013-05-25 12:32:00,60.0,47.0,30.09,ESE,123,9.0,19.0,63,0.00,,,0.19,,2013-05-25 17:32:00,
2013-05-25 12:42:00,60.0,47.0,30.09,ESE,123,9.0,19.0,63,0.00,,,0.19,,2013-05-25 17:42:00,
2013-05-25 12:52:00,60.0,47.0,30.09,SE,142,11.0,20.0,63,0.00,,,0.19,,2013-05-25 17:52:00,
2013-05-25 13:01:00,59.0,47.0,30.09,SE,133,11.0,21.0,64,0.00,,,0.19,,2013-05-25 18:01:00,
2013-05-25 13:11:00,59.0,47.0,30.09,SE,133,11.0,21.0,64,0.00,,,0.19,,2013-05-25 18:11:00,
2013-05-25 13:21:00,59.0,46.0,30.09,SE,127,11.0,21.0,63,0.00,,,0.19,,2013-05-25 18:21:00,
2013-05-25 13:32:00,59.0,46.0,30.09,SE,143,12.0,21.0,63,0.00,,,0.19,,2013-05-25 18:32:00,
2013-05-25 13:42:00,59.0,46.0,30.09,SE,143,12.0,21.0,63,0.00,,,0.19,,2013-05-25 18:42:00,
2013-05-25 13:52:00,60.0,47.0,30.09,ESE,103,9.0,19.0,63,0.00,,,0.19,,2013-05-25 18:52:00,
2013-05-25 14:01:00,60.0,48.0,30.09,SSE,155,10.0,17.0,64,0.00,,,0.19,,2013-05-25 19:01:00,
2013-05-25 14:11:00,60.0,48.0,30.09,SSE,155,10.0,17.0,64,0.00,,,0.19,,2013-05-25 19:11:00,
2013-05-25 14:22:00,59.0,47.0,30.09,SE,130,11.0,19.0,64,0.00,,,0.19,,2013-05-25 19:22:00,
2013-05-25 14:32:00,59.0,47.0,30.09,ESE,113,9.0,16.0,65,0.00,,,0.19,,2013-05-25 19:32:00,
2013-05-25 14:42:00,59.0,47.0,30.09,ESE,113,9.0,16.0,65,0.00,,,0.19,,2013-05-25 19:42:00,
2013-05-25 14:52:00,59.0,48.0,30.10,ESE,123,9.0,15.0,66,0.00,,,0.19,,2013-05-25 19:52:00,
2013-05-25 15:02:00,58.0,47.0,30.10,ESE,114,8.0,15.0,68,0.00,,,0.19,,2013-05-25 20:02:00,
2013-05-25 15:11:00,58.0,47.0,30.10,ESE,114,8.0,15.0,68,0.00,,,0.19,,2013-05-25 20:11:00,
2013-05-25 15:21:00,58.0,47.0,30.09,ESE,123,10.0,21.0,68,0.00,,,0.19,,2013-05-25 20:21:00,
2013-05-25 15:32:00,57.0,47.0,30.09,ESE,115,8.0,17.0,68,0.00,,,0.19,,2013-05-25 20:32:00,
2013-05-25 15:42:00,57.0,47.0,30.09,ESE,115,8.0,17.0,68,0.00,,,0.19,,2013-05-25 20:42:00,
2013-05-25 15:52:00,57.0,47.0,30.09,East,94,10.0,17.0,69,0.00,,,0.05,,2013-05-25 20:52:00,
2013-05-25 16:02:00,56.0,46.0,30.09,ESE,103,9.0,17.0,69,0.00,,,0.05,,2013-05-25 21:02:00,
2013-05-25 16:11:00,56.0,46.0,30.09,ESE,103,9.0,17.0,69,0.00,,,0.05,,2013-05-25 21:11:00,
2013-05-25 16:21:00,56.0,46.0,30.09,ESE,106,8.0,20.0,69,0.00,,,0.05,,2013-05-25 21:21:00,
2013-05-25 16:33:00,56.0,46.0,30.09,SE,130,8.0,16.0,68,0.00,,,0.05,,2013-05-25 21:33:00,
2013-05-25 16:43:00,56.0,46.0,30.09,SE,130,8.0,16.0,68,0.00,,,0.05,,2013-05-25 21:43:00,
2013-05-25 16:53:00,57.0,47.0,30.09,SSE,148,12.0,19.0,68,0.00,,,0.02,,2013-05-25 21:53:00,
2013-05-25 17:03:00,57.0,46.0,30.09,ESE,110,9.0,16.0,67,0.00,,,0.02,,2013-05-25 22:03:00,
2013-05-25 17:12:00,57.0,46.0,30.09,ESE,110,9.0,16.0,67,0.00,,,0.02,,2013-05-25 22:12:00,
2013-05-25 17:22:00,56.0,46.0,30.09,SE,139,8.0,19.0,68,0.00,,,0.02,,2013-05-25 22:22:00,
2013-05-25 17:32:00,56.0,46.0,30.09,ESE,103,8.0,16.0,68,0.00,,,0.02,,2013-05-25 22:32:00,
2013-05-25 17:42:00,56.0,46.0,30.09,ESE,103,8.0,16.0,68,0.00,,,0.02,,2013-05-25 22:42:00,
2013-05-25 17:52:00,56.0,46.0,30.10,SE,130,7.0,15.0,69,0.00,,,0.01,,2013-05-25 22:52:00,
2013-05-25 18:02:00,55.0,45.0,30.10,ESE,117,8.0,16.0,70,0.00,,,0.01,,2013-05-25 23:02:00,
2013-05-25 18:12:00,55.0,45.0,30.10,ESE,117,8.0,16.0,70,0.00,,,0.01,,2013-05-25 23:12:00,
2013-05-25 18:22:00,55.0,45.0,30.10,SE,125,9.0,19.0,69,0.00,,,0.01,,2013-05-25 23:22:00,
2013-05-25 18:32:00,55.0,46.0,30.10,ESE,121,8.0,14.0,71,0.00,,,0.01,,2013-05-25 23:32:00,
2013-05-25 18:42:00,55.0,46.0,30.10,ESE,121,8.0,14.0,71,0.00,,,0.01,,2013-05-25 23:42:00,
2013-05-25 18:52:00,54.0,45.0,30.10,ESE,109,10.0,24.0,71,0.00,,,0.01,,2013-05-25 23:52:00,
2013-05-25 19:01:00,54.0,46.0,30.09,ESE,102,9.0,16.0,73,0.00,,,0.01,,2013-05-26 00:01:00,
2013-05-25 19:11:00,54.0,46.0,30.09,ESE,102,9.0,16.0,73,0.00,,,0.01,,2013-05-26 00:11:00,
2013-05-25 19:22:00,54.0,46.0,30.09,East,82,7.0,12.0,74,0.00,,,0.01,,2013-05-26 00:22:00,
2013-05-25 19:31:00,53.0,46.0,30.09,SE,134,8.0,12.0,76,0.00,,,0.01,,2013-05-26 00:31:00,
2013-05-25 19:42:00,53.0,46.0,30.09,SE,134,8.0,12.0,76,0.00,,,0.01,,2013-05-26 00:42:00,
2013-05-25 19:52:00,53.0,46.0,30.10,East,98,9.0,15.0,76,0.00,,,0.00,,2013-05-26 00:52:00,
2013-05-25 20:01:00,53.0,46.0,30.10,ESE,117,8.0,15.0,76,0.00,,,0.00,,2013-05-26 01:01:00,
2013-05-25 20:11:00,53.0,46.0,30.10,ESE,117,8.0,15.0,76,0.00,,,0.00,,2013-05-26 01:11:00,
2013-05-25 20:21:00,52.0,45.0,30.10,SE,129,8.0,14.0,76,0.00,,,0.00,,2013-05-26 01:21:00,
2013-05-25 20:32:00,52.0,44.0,30.10,East,88,7.0,14.0,75,0.00,,,0.00,,2013-05-26 01:32:00,
2013-05-25 20:42:00,52.0,44.0,30.10,East,88,7.0,14.0,75,0.00,,,0.00,,2013-05-26 01:42:00,
2013-05-25 20:52:00,52.0,44.0,30.10,SSE,148,8.0,18.0,75,0.00,,,0.00,,2013-05-26 01:52:00,
2013-05-25 21:02:00,52.0,44.0,30.10,SE,134,6.0,19.0,75,0.00,,,0.00,,2013-05-26 02:02:00,
2013-05-25 21:11:00,52.0,44.0,30.10,SE,134,6.0,19.0,75,0.00,,,0.00,,2013-05-26 02:11:00,
2013-05-25 21:21:00,52.0,45.0,30.11,SE,140,6.0,16.0,76,0.00,,,0.00,,2013-05-26 02:21:00,
2013-05-25 21:32:00,52.0,45.0,30.11,ESE,121,8.0,15.0,76,0.00,,,0.00,,2013-05-26 02:32:00,
2013-05-25 21:42:00,52.0,45.0,30.11,ESE,121,8.0,15.0,76,0.00,,,0.00,,2013-05-26 02:42:00,
2013-05-25 21:52:00,52.0,44.0,30.11,ESE,119,7.0,19.0,75,0.00,,,0.00,,2013-05-26 02:52:00,
2013-05-25 22:01:00,52.0,44.0,30.10,ESE,117,9.0,17.0,75,0.00,,,0.00,,2013-05-26 03:01:00,
2013-05-25 22:11:00,52.0,44.0,30.10,ESE,117,9.0,17.0,75,0.00,,,0.00,,2013-05-26 03:11:00,
2013-05-25 22:21:00,52.0,44.0,30.10,SSE,153,9.0,18.0,75,0.00,,,0.00,,2013-05-26 03:21:00,
2013-05-25 22:33:00,52.0,44.0,30.10,East,89,8.0,18.0,74,0.00,,,0.00,,2013-05-26 03:33:00,
2013-05-25 22:42:00,52.0,44.0,30.10,East,89,8.0,18.0,74,0.00,,,0.00,,2013-05-26 03:42:00,
2013-05-25 22:53:00,52.0,44.0,30.11,SSE,163,8.0,16.0,75,0.00,,,0.00,,2013-05-26 03:53:00,
2013-05-25 23:02:00,52.0,44.0,30.11,ESE,119,9.0,17.0,74,0.00,,,0.00,,2013-05-26 04:02:00,
2013-05-25 23:12:00,52.0,44.0,30.11,ESE,119,9.0,17.0,74,0.00,,,0.00,,2013-05-26 04:12:00,
2013-05-25 23:23:00,52.0,44.0,30.11,ESE,115,7.0,19.0,74,0.00,,,0.00,,2013-05-26 04:23:00,
2013-05-25 23:33:00,52.0,44.0,30.11,ESE,110,9.0,17.0,74,0.00,,,0.00,,2013-05-26 04:33:00,
2013-05-25 23:42:00,52.0,44.0,30.11,ESE,110,9.0,17.0,74,0.00,,,0.00,,2013-05-26 04:42:00,
2013-05-25 23:52:00,52.0,44.0,30.11,ESE,122,9.0,21.0,74,0.00,,,0.00,,2013-05-26 04:52:00,